Weather History for Pensacola, FL

Change the Weather History Date:

Tuesday, January 22, 2013

  Actual Average Record
Temperature  
Mean Temperature 52 °F 51 °F  
Max Temperature 61 °F 61 °F 77 °F (1993)
Min Temperature 42 °F 42 °F 20 °F (1935)
Degree Days  
Heating Degree Days 13 14  
Month to date heating degree days 184 308  
Since 1 July heating degree days 628 890  
Cooling Degree Days 0 0  
Month to date cooling degree days 22 0  
Year to date cooling degree days 22 0  
Growing Degree Days 2 (Base 50)    
Moisture  
Dew Point 32 °F    
Average Humidity 49    
Maximum Humidity 70    
Minimum Humidity 27    
Precipitation  
Precipitation 0.00 in 0.15 in 2.40 in (1998)
Month to date precipitation 2.05 3.16  
Year to date precipitation 2.05 3.16  
Snow  
Snow 0.00 in 0.00 in - ()
Month to date snowfall 0.0 0.0  
Since 1 July snowfall 0.0 0.0  
Snow Depth 0.00 in    
Sea Level Pressure  
Sea Level Pressure 30.31 in    
Wind  
Wind Speed 6 mph (North)    
Max Wind Speed 12 mph    
Max Gust Speed 20 mph    
Visibility 10 miles    
Events      
T = Trace of Precipitation, MM = Missing Value Source: NWS Daily Summary

Daily Weather History Graph

Daily Weather History Graph

Search for Another Location

Airport:

Trip Planner

Search our weather history database for the weather conditions in past years. The results will help you decide how hot, cold, wet, or windy it might be!

Date:

Astronomy

Jan. 22, 2013 Rise Set
Actual Time 6:44 AM CST 5:16 PM CST
Civil Twilight 6:18 AM CST 5:42 PM CST
Nautical Twilight 5:49 AM CST 6:11 PM CST
Astronomical Twilight 5:20 AM CST 6:40 PM CST
Moon 1:42 PM CST (1/22) 3:03 AM CST (1/22)
Length of Visible Light 11h 23m
Length of Day
10h 32m
Waxing Gibbous, 83% of the Moon is Illuminated
Jan 22
Waxing Gibbous
Jan 26
Full
Feb 3
Last Quarter
Feb 10
New
Feb 17
First Quarter

Hourly Weather History & Observations

Time (CST) Temp. Windchill Dew Point Humidity Pressure Visibility Wind Dir Wind Speed Gust Speed Precip Events Conditions
12:53 AM 50.0 °F - 37.0 °F 61% 30.20 in 10.0 mi North 8.1 mph - N/A   Clear
1:53 AM 48.0 °F - 36.0 °F 63% 30.21 in 10.0 mi North 5.8 mph - N/A   Clear
2:53 AM 46.0 °F 41.9 °F 36.0 °F 68% 30.23 in 10.0 mi North 8.1 mph - N/A   Clear
3:53 AM 45.0 °F 40.6 °F 35.1 °F 68% 30.24 in 10.0 mi North 8.1 mph - N/A   Clear
4:53 AM 43.0 °F 37.7 °F 34.0 °F 71% 30.26 in 10.0 mi North 9.2 mph - N/A   Clear
5:53 AM 43.0 °F 38.8 °F 33.1 °F 68% 30.28 in 10.0 mi NNE 6.9 mph - N/A   Clear
6:53 AM 42.1 °F 36.1 °F 30.9 °F 65% 30.31 in 10.0 mi North 10.4 mph - N/A   Clear
7:53 AM 43.0 °F 37.7 °F 28.9 °F 58% 30.33 in 10.0 mi NNE 9.2 mph 17.3 mph N/A   Clear
8:53 AM 46.0 °F 41.9 °F 27.0 °F 47% 30.36 in 10.0 mi NNE 8.1 mph - N/A   Clear
9:53 AM 50.0 °F - 27.0 °F 41% 30.37 in 10.0 mi NNE 9.2 mph - N/A   Clear
10:53 AM 53.1 °F - 26.1 °F 35% 30.36 in 10.0 mi North 8.1 mph - N/A   Clear
11:53 AM 55.9 °F - 25.0 °F 30% 30.33 in 10.0 mi North 9.2 mph - N/A   Clear
12:53 PM 57.0 °F - 25.0 °F 29% 30.30 in 10.0 mi NNE 6.9 mph - N/A   Clear
1:53 PM 60.1 °F - 27.0 °F 28% 30.29 in 10.0 mi Variable 3.5 mph - N/A   Clear
2:53 PM 61.0 °F - 30.9 °F 32% 30.29 in 10.0 mi North 8.1 mph - N/A   Clear
3:53 PM 60.1 °F - 32.0 °F 35% 30.30 in 10.0 mi North 8.1 mph - N/A   Clear
4:53 PM 57.0 °F - 33.1 °F 40% 30.30 in 10.0 mi NNE 3.5 mph - N/A   Clear
5:53 PM 52.0 °F - 36.0 °F 54% 30.31 in 10.0 mi North 3.5 mph - N/A   Clear
6:53 PM 50.0 °F - 36.0 °F 59% 30.32 in 10.0 mi NW 3.5 mph - N/A   Clear
7:53 PM 48.0 °F - 36.0 °F 63% 30.33 in 10.0 mi North 3.5 mph - N/A   Clear
8:53 PM 46.9 °F - 35.1 °F 63% 30.35 in 10.0 mi North 4.6 mph - N/A   Clear
9:53 PM 46.0 °F 43.9 °F 34.0 °F 63% 30.36 in 10.0 mi North 4.6 mph - N/A   Clear
10:53 PM 46.0 °F 43.9 °F 33.1 °F 61% 30.37 in 10.0 mi North 4.6 mph - N/A   Clear
11:53 PM 45.0 °F - 33.1 °F 63% 30.36 in 10.0 mi Calm Calm - N/A   Clear